Home > Weather > Port of Spain > Past weeks

Flag for Trinidad and Tobago Past Weather in Port of Spain, Trinidad and Tobago — Yesterday and Last 2 Weeks

Now
75 °F

Passing clouds.


Feels Like: 73 °F
Forecast: 81 / 87 °F
Wind: No wind

Location: Piarco International Airport - Trinidad

Current Time: Jul 28, 2016 at 4:47:15 AM

Latest Report: Jul 28, 2016 at 4:00 AM


Visibility: N/A

Pressure: 29.92 "Hg

Humidity: 100%

Dew Point: 75 °F

Location of Port of SpainLocation

Past Weather in Port of Spain — Graph

°F

Port of Spain Temperature Yesterday

Maximum temperature yesterday: 93 °F (at 2:00 PM)
Minimum temperature yesterday: 77 °F (at 12:00 AM)
Average temperature yesterday: 82 °F

High & Low Weather Summary for the Past Weeks

 TemperatureHumidityPressure
High93 °F (Jul 17, 2:00 PM)100% (Jul 13, 3:00 AM)30.01 "Hg (Jul 13, 3:00 AM)
Low73 °F (Jul 15, 5:00 PM)44% (Jul 17, 2:00 PM)29.83 "Hg (Jul 15, 5:00 PM)
Average82 °F82%29.92 "Hg
* Reported Jul 13 3:00 AM — Jul 28 3:00 AM, Port of Spain, Weather by CustomWeather, © 2016

Note: Actual official high and low records may vary slightly from our data, if they occured in-between our weather recording intervals... More about our weather records

Advertising

Port of Spain Weather History for the Previous 24 Hours

Scroll right to see more
 ConditionsComfort  
Time TempWeatherWind HumidityBarometerVisibility
3:00 AM
Thu, Jul 28
77 °FPassing clouds.No wind94%29.89 "HgN/A
2:00 AM77 °FPassing clouds.No wind94%29.92 "HgN/A
12:00 AM77 °FSmoke.No wind94%29.95 "HgN/A
11:00 PM
Wed, Jul 27
79 °FPassing clouds.No wind89%29.95 "HgN/A
10:00 PM79 °FSmoke.No wind89%29.95 "HgN/A
9:00 PM79 °FSmoke.No wind89%29.92 "HgN/A
8:00 PM81 °FSmoke.6 mph84%29.92 "HgN/A
7:00 PM82 °FPassing clouds.12 mph79%29.89 "HgN/A
6:00 PM84 °FPassing clouds.13 mph74%29.89 "HgN/A
5:00 PM88 °FScattered clouds.12 mph66%29.89 "HgN/A
4:00 PM91 °FScattered clouds.14 mph59%29.86 "HgN/A
3:00 PM91 °FScattered clouds.12 mph59%29.86 "HgN/A
2:00 PM93 °FScattered clouds.14 mph56%29.89 "HgN/A
1:00 PM90 °FScattered clouds.14 mph63%29.92 "HgN/A
12:00 PM84 °FScattered clouds.7 mph74%29.95 "HgN/A
11:00 AM81 °FScattered showers. Partly sunny.5 mph84%29.98 "Hg5 mi
10:00 AM82 °FPartly sunny.13 mph79%29.95 "HgN/A
9:00 AM81 °FScattered showers. Partly sunny.12 mph89%29.98 "Hg5 mi
8:00 AM82 °FScattered clouds.3 mph84%29.95 "HgN/A
7:00 AM81 °FPassing clouds.No wind89%29.95 "HgN/A
6:00 AM77 °FPassing clouds.No wind94%29.92 "HgN/A
5:00 AM77 °FPassing clouds.No wind94%29.92 "HgN/A
4:00 AM77 °FPassing clouds.No wind89%29.92 "HgN/A
Weather by CustomWeather, © 2016

See weather overviewHow to use our weather pages